Weather History for Meknes, Morocco

Change the Weather History Date:

Tuesday, February 25, 2014

  Actual Average Record
Temperature  
Mean Temperature 46 °F -  
Max Temperature 57 °F 64 °F - ()
Min Temperature 34 °F 45 °F - ()
Degree Days  
Heating Degree Days 20    
Moisture  
Dew Point 40 °F    
Average Humidity 74    
Maximum Humidity 93    
Minimum Humidity 46    
Precipitation  
Precipitation 0.00 in 0.10 in - ()
Sea Level Pressure  
Sea Level Pressure 30.26 in    
Wind  
Wind Speed 4 mph ()    
Max Wind Speed 8 mph    
Max Gust Speed -    
Visibility 6.0 miles    
Events      
T = Trace of Precipitation, MM = Missing Value Source: Averaged Metar Reports

Daily Weather History Graph

Daily Weather History Graph

Search for Another Location

Airport:

Trip Planner

Search our weather history database for the weather conditions in past years. The results will help you decide how hot, cold, wet, or windy it might be!

Date:

Astronomy

Feb. 25, 2014 Rise Set
Actual Time 6:55 AM WET 6:15 PM WET
Civil Twilight 6:30 AM WET 6:40 PM WET
Nautical Twilight 6:01 AM WET 7:09 PM WET
Astronomical Twilight 5:32 AM WET 7:38 PM WET
Moon 3:29 AM WET (2/25) 2:12 PM WET (2/25)
Length of Visible Light 12h 09m
Length of Day
11h 19m
Waning Crescent, 20% of the Moon is Illuminated
Feb 25
Waning Crescent
Mar 1
New
Mar 8
First Quarter
Mar 16
Full
Mar 24
Last Quarter

Hourly Weather History & Observations

Time (WET) Temp. Windchill Dew Point Humidity Pressure Visibility Wind Dir Wind Speed Gust Speed Precip Events Conditions
12:00 AM 42 °F - 39 °F 86% 30.30 in 5 mi South 4.6 mph - -   Partly Cloudy
12:00 AM 42.8 °F 40.1 °F 39.2 °F 87% 30.24 in 5.0 mi South 4.6 mph - N/A   Scattered Clouds
1:00 AM 41.0 °F 38.0 °F 39.2 °F 93% 30.24 in - South 4.6 mph - N/A   Clear
2:00 AM 41.0 °F 38.0 °F 39.2 °F 93% 30.24 in - South 4.6 mph - N/A   Clear
3:00 AM 40 °F - 37 °F 86% 30.28 in 6 mi South 4.6 mph - -  
3:00 AM 41.0 °F 38.0 °F 37.4 °F 87% 30.21 in - South 4.6 mph - N/A   Clear
4:00 AM 39.2 °F 35.9 °F 35.6 °F 87% 30.24 in - South 4.6 mph - N/A   Clear
5:00 AM 39.2 °F 35.9 °F 35.6 °F 87% 30.24 in - South 4.6 mph - N/A   Clear
6:00 AM 35 °F - 33 °F 88% 30.33 in 6 mi Calm Calm - -  
6:00 AM 35.6 °F - 32.0 °F 87% 30.24 in - Calm Calm - N/A   Clear
7:00 AM 35.6 °F 31.7 °F 33.8 °F 93% 30.27 in 6.2 mi SSE 4.6 mph - N/A   Scattered Clouds
8:00 AM 42.8 °F 40.1 °F 39.2 °F 87% 30.27 in 6.2 mi SSE 4.6 mph - N/A   Scattered Clouds
9:00 AM 49 °F - 40 °F 61% 30.29 in 6 mi SSE 3.5 mph - -   Partly Cloudy
9:00 AM 48.2 °F - 39.2 °F 71% 30.27 in 6.2 mi SSE 3.5 mph - N/A   Scattered Clouds
10:00 AM 51.8 °F - 39.2 °F 62% 30.27 in 6.2 mi East 2.3 mph - N/A   Scattered Clouds
11:00 AM 53.6 °F - 37.4 °F 54% 30.27 in 6.2 mi North 2.3 mph - N/A   Scattered Clouds
12:00 PM 54 °F - 40 °F 49% 30.27 in 6 mi NW 2.3 mph - -   Mostly Cloudy
12:00 PM 53.6 °F - 41.0 °F 62% 30.27 in 6.2 mi NW 2.3 mph - N/A   Mostly Cloudy
1:00 PM 55.4 °F - 42.8 °F 63% 30.27 in 6.2 mi NW 5.8 mph - N/A   Mostly Cloudy
2:00 PM 57.2 °F - 41.0 °F 55% 30.24 in 6.2 mi NW 2.3 mph - N/A   Mostly Cloudy
3:00 PM 57 °F - 42 °F 46% 30.21 in 6 mi NNW 6.9 mph - -   Mostly Cloudy
3:00 PM 57.2 °F - 42.8 °F 59% 30.21 in 6.2 mi NNW 6.9 mph - N/A   Mostly Cloudy
4:00 PM 55.4 °F - 42.8 °F 63% 30.24 in 6.2 mi NW 8.1 mph - N/A   Mostly Cloudy
5:00 PM 53.6 °F - 42.8 °F 67% 30.24 in 6.2 mi North 4.6 mph - N/A   Mostly Cloudy
6:00 PM 54 °F - 41 °F 52% 30.25 in 6 mi NNE 5.8 mph - -   Mostly Cloudy
6:00 PM 53.6 °F - 41.0 °F 62% 30.24 in 6.2 mi NNE 5.8 mph - N/A   Mostly Cloudy
7:00 PM 50.0 °F - 42.8 °F 76% 30.27 in 6.2 mi East 3.5 mph - N/A   Scattered Clouds
8:00 PM 50.0 °F - 42.8 °F 76% 30.27 in 6.2 mi ESE 3.5 mph - N/A   Mostly Cloudy
9:00 PM 47 °F - 42 °F 76% 30.31 in 6 mi SE 2.3 mph - -   Scattered Clouds
9:00 PM 46.4 °F - 42.8 °F 87% 30.27 in 6.2 mi SE 2.3 mph - N/A   Mostly Cloudy
10:00 PM 46.4 °F - 42.8 °F 87% 30.27 in - SW 2.3 mph - N/A   Clear
11:00 PM 46.4 °F - 42.8 °F 87% 30.27 in - SW 2.3 mph - N/A   Clear